Погода в Хорогочах

Россия / Амурская область     55°22′20″N   123°45′51″E
темп.,
°C
ветер,
м/с
пор.,
м/с
влажн.,
%
обл.,
%
осадки,
мм/ч
давл.,
гПа
погр.,
м
17 апреля, сб
сб1700:00−8ю378399 0.0 1014104
03:00−8ю248465 0.0 101254
06:00−8ююв2585100 0.0 101167
09:00−1ююв356865 0.0 1008228
12:00+3ю36615 0.0 1006637
15:00+5ююз49585 0.0 10051109
18:00+5ю39636 0.0 1004332
21:00−3ююв248898 0.0 100654
18 апреля, вс
вс1800:00−3ююв2487100 0.0 100550
03:00−4юв2490100 0.0 100543
06:00−5вюв2295100 0.0 100632
09:000в2279100 0.0 1006229
12:00+3в3370100 0.0 1005639
15:00+4в3467100 0.0 1004790
18:00−1св3794100 0.6 1006506
21:00−6сз4894100 3.9 1011601
19 апреля, пн
пн1900:00−8сз41194100 4.5 1013831
03:00−10сз51093100 6.9 10151069
06:00−10сз71372100 0.3 10171158
09:00−10сз7137095 0.3 10181234
12:00−7ссз81265100 0.1 10181834
15:00−6сз71262100 0.2 10182135
18:00−7сз6126498 0.1 10191965
21:00−10сз512710 0.1 1020628
20 апреля, вт
вт2000:00−12зсз39760 0.0 1021214
03:00−17зюз21945 0.0 102113
06:00−18зюз11955 0.0 102112
09:00−7в1165100 0.0 1015310
12:00−3вюв2358100 0.0 1012661
15:00+1зюз135690 0.0 10101200
18:00−2ссз347414 0.0 1012473
21:00−9зюз21945 0.0 101710
21 апреля, ср
ср2100:00−11зюз119611 0.0 101910
03:00−12ю119673 0.0 102010
06:00−12в119728 0.0 102111
09:00−3в1374100 0.0 1019420
12:000в2357100 0.0 10191006
15:00+1в2156100 0.0 10191197
18:00+1св226699 0.0 1020767
21:00−4всв2984100 0.0 1024258